McCall, ID

6:56 AM MDT on April 29, 2017 (GMT -0600)
McCall

Weather History for KMYL - September, 2013

Change the Weather History Date:

Sunday, September 8, 2013

  Actual Average Record
Temperature  
Mean Temperature 57 °F 53 °F  
Max Temperature 72 °F 70 °F 87 °F (1944)
Min Temperature 41 °F 36 °F 25 °F (1988)
Degree Days  
Heating Degree Days 8 12  
Month to date heating degree days 25 84  
Since 1 July heating degree days 72 412  
Cooling Degree Days 0 0  
Month to date cooling degree days 3 0  
Year to date cooling degree days 183 25  
Growing Degree Days 6 (Base 50)    
Moisture  
Dew Point 41 °F    
Average Humidity 60    
Maximum Humidity 89    
Minimum Humidity 31    
Precipitation  
Precipitation 0.00 in 0.03 in 1.42 in (1970)
Month to date precipitation 0.31 0.22  
Year to date precipitation 11.88 13.26  
Sea Level Pressure  
Sea Level Pressure 30.00 in    
Wind  
Wind Speed 5 mph (NW)    
Max Wind Speed 17 mph    
Max Gust Speed 22 mph    
Visibility 10 miles    
Events      
T = Trace of Precipitation, MM = Missing Value Source: NWS Daily Summary

Daily Weather History Graph

Daily Weather History Graph

Search for Another Location

Airport or City:

Trip Planner

Search our weather history database for the weather conditions in past years. The results will help you decide how hot, cold, wet, or windy it might be!

Date:

Astronomy

Sep. 08, 2013 Rise Set
Actual Time 7:15 AM MDT 8:07 PM MDT
Civil Twilight 6:45 AM MDT 8:37 PM MDT
Nautical Twilight 6:09 AM MDT 9:12 PM MDT
Astronomical Twilight 5:32 AM MDT 9:49 PM MDT
Moon 10:48 AM MDT (9/8) 9:34 PM MDT (9/8)
Length of Visible Light 13h 52m
Length of Day
12h 52m
Waxing Crescent, 11% of the Moon is Illuminated
Sep 8
Waxing Crescent
Sep 12
First Quarter
Sep 19
Full
Sep 26
Last Quarter
Oct 4
New

Hourly Weather History & Observations

Time (MDT) Temp. Dew Point Humidity Pressure Visibility Wind Dir Wind Speed Gust Speed Precip Events Conditions
12:51 AM 48.9 °F 39.0 °F 69% 30.02 in 10.0 mi Calm Calm - N/A   Clear
1:51 AM 46.0 °F 39.0 °F 76% 30.03 in 10.0 mi Calm Calm - N/A   Clear
2:51 AM 46.0 °F 37.9 °F 73% 30.02 in 10.0 mi Calm Calm - N/A   Clear
3:51 AM 45.0 °F 37.9 °F 76% 30.01 in 10.0 mi Calm Calm - N/A   Clear
4:51 AM 43.0 °F 39.0 °F 86% 30.02 in 10.0 mi Calm Calm - N/A   Clear
5:51 AM 42.1 °F 37.9 °F 85% 30.01 in 10.0 mi Calm Calm - N/A   Clear
6:51 AM 42.1 °F 37.0 °F 82% 30.02 in 10.0 mi Calm Calm - N/A   Clear
7:51 AM 43.0 °F 39.0 °F 86% 30.02 in 10.0 mi Calm Calm - N/A   Scattered Clouds
8:51 AM 48.0 °F 41.0 °F 77% 30.04 in 10.0 mi Calm Calm - N/A   Overcast
9:51 AM 52.0 °F 44.1 °F 74% 30.03 in 10.0 mi Calm Calm - N/A   Mostly Cloudy
10:51 AM 61.0 °F 42.1 °F 50% 30.01 in 10.0 mi Calm Calm - N/A   Partly Cloudy
11:51 AM 64.9 °F 42.1 °F 43% 30.00 in 10.0 mi WSW 5.8 mph - N/A   Partly Cloudy
12:51 PM 68.0 °F 43.0 °F 40% 30.00 in 10.0 mi WSW 5.8 mph - N/A   Partly Cloudy
1:51 PM 71.1 °F 43.0 °F 36% 29.99 in 10.0 mi West 11.5 mph - N/A   Clear
2:51 PM 70.0 °F 43.0 °F 38% 29.99 in 10.0 mi WNW 6.9 mph 20.7 mph N/A   Clear
3:51 PM 69.1 °F 42.1 °F 38% 29.98 in 10.0 mi NW 4.6 mph - N/A   Mostly Cloudy
4:51 PM 71.1 °F 42.1 °F 35% 29.97 in 10.0 mi Variable 5.8 mph - N/A   Partly Cloudy
5:51 PM 71.1 °F 39.9 °F 32% 29.96 in 10.0 mi West 10.4 mph 16.1 mph N/A   Partly Cloudy
6:51 PM 69.1 °F 37.0 °F 31% 29.96 in 10.0 mi WNW 10.4 mph - N/A   Clear
7:51 PM 64.9 °F 43.0 °F 45% 29.98 in 10.0 mi North 10.4 mph 18.4 mph N/A   Clear
8:51 PM 62.1 °F 41.0 °F 46% 30.00 in 10.0 mi North 9.2 mph - N/A   Clear
9:51 PM 60.1 °F 42.1 °F 51% 30.01 in 10.0 mi North 6.9 mph - N/A   Clear
10:51 PM 57.9 °F 43.0 °F 58% 30.00 in 10.0 mi NNW 11.5 mph 17.3 mph N/A   Clear
11:51 PM 57.0 °F 43.0 °F 59% 30.00 in 10.0 mi North 9.2 mph 18.4 mph N/A   Clear